This is the latest recevied weather packets stored in our database for station/object KD4WXI. If no packets are shown the sender has not sent any weather packets the latest 10 day(s).
| Time | Temp. | Humidity | Pressure | Rain* | Wind** | Luminosity | Snow |
|---|---|---|---|---|---|---|---|
| 1777816197 | 14.44° C | 47% | 1020.9 hPa | 0 mm | - | 437 W/m² | - |
| 1777815895 | 14.44° C | 42% | 1020.9 hPa | 0 mm | - | 421 W/m² | - |
| 1777815591 | 13.89° C | 48% | 1020.9 hPa | 0 mm | - | 407 W/m² | - |
| 1777815289 | 13.89° C | 44% | 1020.9 hPa | 0 mm | - | 390 W/m² | - |
| 1777814985 | 13.89° C | 48% | 1021 hPa | 0 mm | - | 376 W/m² | - |
| 1777814682 | 13.89° C | 51% | 1021 hPa | 0 mm | - | 361 W/m² | - |
| 1777814378 | 13.33° C | 50% | 1020.7 hPa | 0 mm | - | 347 W/m² | - |
| 1777814076 | 13.89° C | 54% | 1020.7 hPa | 0 mm | - | 329 W/m² | - |
| 1777813772 | 12.78° C | 61% | 1020.7 hPa | 0 mm | - | 313 W/m² | - |
| 1777813470 | 12.22° C | 61% | 1020.8 hPa | 0 mm | - | 297 W/m² | - |
| 1777813167 | 12.78° C | 64% | 1020.8 hPa | 0 mm | - | 283 W/m² | - |
| 1777812860 | 11.67° C | 65% | 1020.7 hPa | 0 mm | - | 268 W/m² | - |
| 1777812556 | 11.67° C | 64% | 1020.8 hPa | 0 mm | - | 252 W/m² | - |
| 1777812254 | 11.11° C | 66% | 1020.9 hPa | 0 mm | - | 75 W/m² | - |
| 1777811952 | 10.56° C | 70% | 1020.7 hPa | 0 mm | - | 76 W/m² | - |
| 1777811650 | 10° C | 69% | 1020.7 hPa | 0 mm | - | 42 W/m² | - |
| 1777811345 | 10° C | 72% | 1020.9 hPa | 0 mm | - | 63 W/m² | - |
| 1777811043 | 9.44° C | 78% | 1020.9 hPa | 0 mm | - | 125 W/m² | - |
| 1777810740 | 8.89° C | 79% | 1020.8 hPa | 0 mm | - | 108 W/m² | - |
| 1777810436 | 9.44° C | 77% | 1020.6 hPa | 0 mm | - | 37 W/m² | - |
| 1777810132 | 8.33° C | 75% | 1020.6 hPa | 0 mm | - | 32 W/m² | - |
| 1777809830 | 7.22° C | 79% | 1020.7 hPa | 0 mm | - | 31 W/m² | - |
| 1777809527 | 6.11° C | 88% | 1020.6 hPa | 0 mm | - | 55 W/m² | - |
| 1777809225 | 5° C | 93% | 1020.5 hPa | 0 mm | - | 64 W/m² | - |
| 1777808923 | 3.89° C | 97% | 1020.4 hPa | 0 mm | - | 57 W/m² | - |
* Rain latest hour (hover to see other rain measurements)
** Current wind speed in m/s (hover to see current wind gust speed)